{"data":{"norad_id":62473,"intl_designator":"2024-254M","name":"STARLINK-11464 [DTC]","alt_names":[],"object_type":"PAYLOAD","status":"ACTIVE","operator":null,"country":"US","launch_date":"2024-12-31","launch_site_code":"AFETR","launch_vehicle":null,"mission":null,"orbit_class":"UNKNOWN","rcs_meters":null,"size_class":null,"mass_kg":null,"dimensions":null,"purposes":["comms"],"wikipedia_slug":null,"has_3d_model":false,"image_url":null,"decayed_at":null,"tle_current":{"epoch":"2026-05-24T06:05:15.510336Z","epoch_age_seconds":150086,"freshness":"FRESH","line1":"1 62473U 24254M   26144.25365174  .00188705  00000+0  14344-2 0  9995","line2":"2 62473  43.0000 127.6673 0000941 173.5819 186.5061 15.70948619 81333","mean_motion":15.70948619,"eccentricity":9.41e-5,"inclination_deg":43,"raan_deg":127.6673,"arg_perigee_deg":173.5819,"mean_anomaly_deg":186.5061,"bstar":0.0014344,"rev_number":8133,"period_min":91.6643601569,"perigee_km":355.55092636119,"apogee_km":356.81832569121,"semimajor_km":6734.3216260262,"source":"CELESTRAK","updated_at":"2026-05-25T13:38:19.693598Z"}}}